Regional Weather Roundup
Issued by NWS

Home | Current Version | Previous Version | Graphics & Text | Print | Product List | Glossary On
Versions: 1 2 3 4 5 6 7 8 9 10 11 12 13 14 15 16 17 18 19 20 21 22 23 24 25 26 27
000
ASUS45 KBOU 221410
RWRCO

WEATHER ROUNDUP FOR COLORADO
NATIONAL WEATHER SERVICE DENVER/BOULDER CO
700 AM MST MON JAN 22 2018

NOTE: "FAIR" INDICATES FEW OR NO CLOUDS BELOW 12000 FEET WITH NO
SIGNIFICANT WEATHER AND/OR OBSTRUCTIONS TO VISIBILITY.

COZ001>005-013-030-031-221500-
...NORTHWEST COLORADO...

CITY           SKY/WX    TMP DP  RH WIND       PRES   REMARKS
CRAIG          FAIR      -7 -13  75 CALM      30.25R
HAYDEN         FAIR     N/A N/A N/A CALM      30.23R
MEEKER         FAIR      -5  -9  83 NE3       30.24R
RABBIT EARS PA LGT SNOW N/A N/A N/A W12G21    30.01R VSB 1
STEAMBOAT SPGS CLOUDY     4   1  87 CALM      30.20R
WALDEN         FAIR      -2  -8  78 SE5       30.11R WCI -12
$$

COZ006>008-011-221500-
...WEST CENTRAL VALLEYS...

CITY           SKY/WX    TMP DP  RH WIND       PRES   REMARKS
GRAND JUNCTION FAIR      13   9  84 E12       30.29R WCI  -1
MONTROSE       FAIR      11   5  77 S7        30.31R WCI   0
EAGLE          FAIR       0  -3  87 E5        30.28R WCI -10
RIFLE          FAIR      14  10  84 NW3       30.30R
DELTA          FAIR      15   9  78 CALM      30.31R
NUCLA          FAIR      10   5  79 SE3       30.30R
$$

COZ017>023-064>068-221500-
...SOUTHWEST COLORADO...

CITY           SKY/WX    TMP DP  RH WIND       PRES   REMARKS
DURANGO        FAIR       2  -1  88 E8        30.17R WCI -12
CORTEZ         FAIR       2  -2  83 NE7       30.23R WCI -11
PAGOSA SPRINGS FAIR     N/A N/A N/A CALM      30.14S
TELLURIDE      FAIR       3  -1  84 SE7       30.15R WCI  -9
WOLF CREEK PAS FAIR       1 -13  51 N14G24    30.04S WCI -17
$$

COZ009-010-012-014-032>034-037-058>063-221500-
...CENTRAL COLORADO...

CITY           SKY/WX    TMP DP  RH WIND       PRES   REMARKS
ASPEN          FAIR       2  -2  83 SW6       30.18R WCI  -9
BUENA VISTA    FAIR      13   0  54 NW26G40   30.06R WCI  -7
COPPER MTN     NOT AVBL
BERTHOUD PASS  HAZE      -8 -18  59 N8G29     29.91R VSB 3/4 WCI -23
COTTONWOOD PAS   N/A     16  -2  45 NW12G24   30.00R WCI   3
GUNNISON       FAIR      -1  -6  79 NE3       30.21R
KREMMLING      FAIR       7   1  78 CALM      30.20R
LEADVILLE      FAIR      -3  -7  82 NE6       30.06R WCI -15
MONARCH PASS   CLOUDY    -4  -8  84 SW28G35   30.05S WCI -30
SALIDA         FAIR       9   1  69 W6        30.17R WCI  -1
SUNLIGHT       LGT SNOW N/A N/A N/A MISG      30.11S
WILKERSON PASS FAIR       3  -6  66 N18G35    29.93R WCI -17
$$

COZ069>075-221500-
...SAN LUIS VALLEY/SANGRE DE CRISTO MOUNTAINS...

CITY           SKY/WX    TMP DP  RH WIND       PRES   REMARKS
ALAMOSA        FAIR      -4  -8  83 CALM      30.11R
DEL NORTE      FAIR       9  -5  53 NW8       30.10R WCI  -3
LA VETA PASS   MOCLDY     5   0  78 SW20        N/A  WCI -15
SAGUACHE       FAIR      14   1  57 NW20      30.12R WCI  -3
$$

COZ035-036-038>040-221500-
...NORTHERN COLORADO FRONT RANGE...

CITY           SKY/WX    TMP DP  RH WIND       PRES   REMARKS
DENVER INTL AP FAIR      14   2  58 SW5       29.99R WCI   6
DMNS CITY PARK NOT AVBL
AURORA         PTCLDY    17   5  58 W9        29.98S WCI   6
FRONT RANGE AP PTCLDY    19   9  63 SW7       29.99S WCI  10
ERIE MUNI ARPT FAIR       7   3  84 SW3       30.05S
BOULDER MUN AP FAIR      30   1  29 N6        29.99R WCI  24
CENTENNIAL     FAIR      22   5  48 W9        29.98R WCI  12
BROOMFIELD     NOT AVBL
FORT COLLINS   FAIR      14   7  73 SE10      29.99R WCI   1
LONGMONT       FAIR       7   1  75 SW5       30.01S WCI  -2
$$

COZ041-046-047-076>085-087-088-221500-
...PIKES PEAK/PALMER DIVIDE AND SOUTHERN FOOTHILLS...

CITY           SKY/WX    TMP DP  RH WIND       PRES   REMARKS
COLO. SPRINGS  FAIR      21   1  41 NW10      29.97R WCI  10
A. F. ACADEMY  CLEAR     20  -2  38 N10       29.95R WCI   8
SCHRIEVER AFB  FAIR      14   0  53 NW3       29.97R
CHEYENNE MTN   FAIR      26  -8  21 N9G21     29.87S WCI  17
ELLICOTT         N/A    N/A N/A N/A NW7         N/A
FALCON         FAIR      20  -1  38 NW15G22   29.95R WCI   7
FORT CARSON    FAIR      15   1  53 CALM      29.96R
LIMON          FAIR      19   9  65 NW25G35   29.93S WCI   1
MONUMENT HILL  FAIR       9   0  66 NW13      29.96R WCI  -7
CANON CITY     FAIR      25   9  50 W20       30.05R WCI  11
WALSENBURG     FAIR      21   9  58 W14G28    30.02R WCI   8
TRINIDAD       FAIR      14   4  64 W10       30.02R WCI   1
$$

COZ042>045-048>051-090-091-221500-
...NORTHEAST COLORADO...

CITY           SKY/WX    TMP DP  RH WIND       PRES   REMARKS
GREELEY ARPT   FAIR       9   5  84 S3        30.02R
AKRON          FAIR      20  12  71 NW23G33   29.95R WCI   3
BURLINGTON     FLURRIES  23  17  78 NW24G37   29.88S WCI   7
WRAY           CLOUDY    27  18  69 NW25      29.92S WCI  11
YUMA           FAIR      23  14  68 NW22G29   29.94R WCI   8
STERLING       FAIR      23  14  68 NW20      29.96S WCI   8
HOLYOKE        FAIR      27  18  69 NW20G25   29.91S WCI  13
FORT MORGAN    FAIR      24  10  53 NW22G28   30.00S WCI   9
$$

COZ086-089-092>099-221500-
...SOUTHEAST COLORADO...

CITY           SKY/WX    TMP DP  RH WIND       PRES   REMARKS
PUEBLO         FAIR      28   6  39 NW18      30.01R WCI  15
LA JUNTA       FAIR      19  12  74 W10       30.02R WCI   7
LAMAR          FAIR      23  13  65 W17       29.97R WCI   9
SPRINGFIELD      N/A     26  14  60 NW25G41   29.93R WCI  11
$$




USA.gov is the U.S. government's official web portal to all federal, state and local government web resources and services.